Regional Weather Roundup
Issued by NWS

Home | Current Version | Previous Version | Graphics & Text | Print | Product List | Glossary On
Versions: 1 2 3 4 5 6 7 8 9 10 11 12 13 14 15 16 17 18 19 20 21 22 23 24 25 26 27 28 29 30 31 32 33 34 35 36 37 38 39 40 41 42 43 44 45 46 47 48 49 50
000
ASUS43 KLMK 261702
RWRKY
KENTUCKY REGIONAL WEATHER ROUNDUP
NATIONAL WEATHER SERVICE LOUISVILLE KY
100 PM EDT THU MAY 26 2016

NOTE "FAIR" INDICATES FEW OR NO CLOUDS BELOW 12,000 FEET
WITH NO SIGNIFICANT WEATHER AND/OR OBSTRUCTIONS TO VISIBILITY.

KYZ001>023-026-027-061>063-070>075-261800-
WESTERN AND SOUTH CENTRAL KENTUCKY

CITY           SKY/WX    TMP DP  RH WIND       PRES   REMARKS
PADUCAH        CLOUDY    80  72  76 SW6       30.03F
HENDERSON      CLOUDY    66  63  88 N7        30.05F
OWENSBORO      TSTM      75  67  76 NW18G26   30.08R
HOPKINSVILLE   NOT AVBL
BOWLING GREEN  PTSUNNY   83  71  67 S15       30.07F
GLASGOW        NOT AVBL
$$

KYZ024-025-028>034-038-045-046-053-261800-
NORTH CENTRAL KENTUCKY

CITY           SKY/WX    TMP DP  RH WIND       PRES   REMARKS
LOUISVILLE/SDF CLOUDY    80  66  62 S14       30.05F
LOUISVILLE/LOU CLOUDY    79  66  64 S9G16     30.06F
FORT KNOX      CLOUDY    77  68  73 S12       30.05F
$$

KYZ035>037-039>044-047>052-055>060-089>105-261800-
NORTHEAST KENTUCKY

CITY           SKY/WX    TMP DP  RH WIND       PRES   REMARKS
LEXINGTON      SUNNY     77  66  68 S14       30.12F
COVINGTON      PTSUNNY   76  66  71 S13       30.07F
FRANKFORT      PTSUNNY   79  65  62 S13       30.09F
$$

KYZ054-064>069-076>088-106>120-261800-
SOUTHEAST KENTUCKY

CITY           SKY/WX    TMP DP  RH WIND       PRES   REMARKS
JACKSON        CLOUDY    69  63  81 VRB6      30.17F
LONDON         LGT RAIN  68  64  87 S10       30.18F
SOMERSET       NOT AVBL
MIDDLESBORO    NOT AVBL
MONTICELLO     CLOUDY    72  69  90 E5        30.18S
$$





USA.gov is the U.S. government's official web portal to all federal, state and local government web resources and services.